Location: ?
(35.4996°N, 139.3166°E)
Time: 03:16:32
(UTC+00:00)

Cosmos 921 Rocket - Pass Details

Date: 18 April 2024
Orbit: 567 x 626 km, 75.8° (Epoch: 23 May)

Event Time Altitude Azimuth Distance (km) Brightness Sun altitude
Exits shadow 18:03:29 40° 322° (NW) 876 3.7 -23.4°
Drops below altitude 10° 18:06:48 10° 2° (N) 1,940 6.0 -22.8°
Sets 18:09:08 0° 9° (N) 2,857 7.1 -22.4°
